NKS3A KEWR-KDTW

Flight info

Callsign NKS3A
Flight time N/A
Altitude 34000
Route GAYEL J95 CFB TRAAD JACCI FERRL2
Aircraft A20N/M-SDE2E3FGHIRWXY/LB1

Departure

Time 2026-05-06 09:51
Airport Newark Liberty International Airport (KEWR)

Arrival

Time N/A
Airport Detroit Metropolitan Wayne County Airport (KDTW)
Time Latitude Longitude Altitude Speed Heading
2026-05-06 09:32 40.69411 -74.17360 22 ft 0 kts 10°
2026-05-06 09:39 40.69393 -74.17364 21 ft 4 kts 11°
2026-05-06 09:39 40.69366 -74.17372 21 ft 4 kts 16°
2026-05-06 09:40 40.69342 -74.17385 21 ft 4 kts 43°
2026-05-06 09:40 40.69333 -74.17405 21 ft 1 kts 103°
2026-05-06 09:40 40.69334 -74.17411 21 ft 0 kts 103°
2026-05-06 09:46 40.69332 -74.17398 21 ft 7 kts 103°
2026-05-06 09:46 40.69317 -74.17329 20 ft 8 kts 114°
2026-05-06 09:46 40.69289 -74.17266 21 ft 8 kts 122°
2026-05-06 09:47 40.69264 -74.17210 23 ft 6 kts 115°
2026-05-06 09:47 40.69262 -74.17204 21 ft 0 kts 116°
2026-05-06 09:47 40.69255 -74.17186 21 ft 7 kts 116°
2026-05-06 09:48 40.69219 -74.17089 23 ft 14 kts 116°
2026-05-06 09:48 40.69252 -74.17016 22 ft 9 kts 25°
2026-05-06 09:48 40.69306 -74.16983 24 ft 8 kts 25°
2026-05-06 09:48 40.69382 -74.16935 26 ft 17 kts 26°
2026-05-06 09:49 40.69488 -74.16867 25 ft 17 kts 26°
2026-05-06 09:49 40.69599 -74.16796 25 ft 18 kts 26°
2026-05-06 09:49 40.69713 -74.16722 22 ft 19 kts 26°
2026-05-06 09:49 40.69840 -74.16641 20 ft 21 kts 26°
2026-05-06 09:50 40.69903 -74.16536 18 ft 15 kts 92°
2026-05-06 09:50 40.69843 -74.16483 21 ft 10 kts 203°
2026-05-06 09:50 40.69709 -74.16568 21 ft 50 kts 206°
2026-05-06 09:50 40.69200 -74.16886 23 ft 113 kts 205°
2026-05-06 09:51 40.68326 -74.17443 53 ft 161 kts 205°
2026-05-06 09:51 40.67290 -74.18115 475 ft 167 kts 205°
2026-05-06 09:51 40.66253 -74.18645 1224 ft 156 kts 190°
2026-05-06 09:51 40.65101 -74.18852 1618 ft 179 kts 186°
2026-05-06 09:52 40.63809 -74.19027 2059 ft 191 kts 186°
2026-05-06 09:52 40.62513 -74.19463 2532 ft 196 kts 211°
2026-05-06 09:52 40.61637 -74.20825 2959 ft 206 kts 239°
2026-05-06 09:52 40.61075 -74.22599 3535 ft 207 kts 248°
2026-05-06 09:53 40.60815 -74.24539 3849 ft 228 kts 264°
2026-05-06 09:53 40.61187 -74.26656 4229 ft 250 kts 291°
2026-05-06 09:53 40.62427 -74.28325 4695 ft 273 kts 324°
2026-05-06 09:53 40.64277 -74.29224 5213 ft 287 kts 341°
2026-05-06 09:54 40.66278 -74.29582 5752 ft 294 kts 351°
2026-05-06 09:54 40.68331 -74.29673 6319 ft 296 kts 354°
2026-05-06 09:54 40.70394 -74.29680 6870 ft 298 kts 354°
2026-05-06 09:54 40.72472 -74.29700 7394 ft 299 kts 354°
2026-05-06 09:55 40.74562 -74.29769 7921 ft 301 kts 353°
2026-05-06 09:55 40.76670 -74.29891 8428 ft 304 kts 352°
2026-05-06 09:55 40.78758 -74.30049 8943 ft 305 kts 351°
2026-05-06 09:55 40.80884 -74.30233 9454 ft 308 kts 351°
2026-05-06 09:56 40.83032 -74.30432 9930 ft 311 kts 351°
2026-05-06 09:56 40.85235 -74.30644 10190 ft 324 kts 351°
2026-05-06 09:56 40.87535 -74.30866 10356 ft 337 kts 351°
2026-05-06 09:56 40.89910 -74.31091 10616 ft 345 kts 351°
2026-05-06 09:57 40.92311 -74.31311 11009 ft 348 kts 351°
2026-05-06 09:57 40.94744 -74.31529 11394 ft 352 kts 351°
2026-05-06 09:57 40.97198 -74.31748 11787 ft 355 kts 351°
2026-05-06 09:57 40.99669 -74.31968 12141 ft 358 kts 351°
2026-05-06 09:58 41.02163 -74.32192 12508 ft 360 kts 351°
2026-05-06 09:58 41.04666 -74.32417 12899 ft 361 kts 351°
2026-05-06 09:58 41.07174 -74.32644 13317 ft 360 kts 350°
2026-05-06 09:58 41.09685 -74.32872 13647 ft 363 kts 350°
2026-05-06 09:59 41.12208 -74.33104 13987 ft 364 kts 350°
2026-05-06 09:59 41.14747 -74.33337 14370 ft 364 kts 350°
2026-05-06 09:59 41.17276 -74.33568 14721 ft 365 kts 350°
2026-05-06 09:59 41.19784 -74.33797 15038 ft 367 kts 349°
2026-05-06 10:00 41.22363 -74.34033 15376 ft 367 kts 349°
2026-05-06 10:00 41.24917 -74.34266 15707 ft 367 kts 349°
2026-05-06 10:00 41.27437 -74.34497 16026 ft 368 kts 349°
2026-05-06 10:00 41.30032 -74.34736 16310 ft 370 kts 349°
2026-05-06 10:01 41.32599 -74.34973 16589 ft 371 kts 349°
2026-05-06 10:01 41.35174 -74.35211 16896 ft 370 kts 348°
2026-05-06 10:01 41.37650 -74.35770 17167 ft 362 kts 337°
2026-05-06 10:01 41.39941 -74.37020 17400 ft 351 kts 321°
2026-05-06 10:02 41.41787 -74.39033 17636 ft 338 kts 305°
2026-05-06 10:02 41.43246 -74.41462 17859 ft 335 kts 298°
2026-05-06 10:02 41.44533 -74.44112 18077 ft 348 kts 295°
2026-05-06 10:02 41.45761 -74.46974 18338 ft 363 kts 293°
2026-05-06 10:03 41.46998 -74.49989 18600 ft 378 kts 293°
2026-05-06 10:03 41.48282 -74.53128 18850 ft 393 kts 293°
2026-05-06 10:03 41.49624 -74.56365 19151 ft 404 kts 294°
2026-05-06 10:03 41.51016 -74.59656 19612 ft 410 kts 294°
2026-05-06 10:04 41.52440 -74.62975 20102 ft 414 kts 295°
2026-05-06 10:04 41.53884 -74.66318 20631 ft 418 kts 295°
2026-05-06 10:04 41.55343 -74.69692 21120 ft 422 kts 295°
2026-05-06 10:04 41.56816 -74.73104 21619 ft 425 kts 295°
2026-05-06 10:05 41.58297 -74.76544 22097 ft 428 kts 295°
2026-05-06 10:05 41.59789 -74.80016 22567 ft 431 kts 295°
2026-05-06 10:05 41.61285 -74.83506 23042 ft 434 kts 295°
2026-05-06 10:05 41.62284 -74.85841 23338 ft 436 kts 295°
2026-05-06 10:06 41.63281 -74.88174 23650 ft 438 kts 295°